Regional Weather Roundup
Issued by NWS

Home | Current Version | Previous Version | Graphics & Text | Print | Product List | Glossary On
Versions: 1 2 3 4 5 6 7 8 9 10 11 12 13 14 15 16 17 18 19 20 21 22 23 24 25 26 27 28 29 30 31 32 33 34 35 36 37 38 39 40 41 42 43 44 45 46 47 48 49 50
000
ASUS43 KDTX 271901
RWRMI
MICHIGAN HOURLY REGIONAL WEATHER ROUNDUP
NATIONAL WEATHER SERVICE DETROIT/PONTIAC MI
300 PM EDT TUE SEP 27 2016

NOTE: "FAIR" INDICATES FEW OR NO CLOUDS BELOW 12,000 FEET WITH NO
SIGNIFICANT WEATHER AND/OR OBSTRUCTION TO VISIBILITY.

MIZ047>049-052>055-059>063-066>070-074>076-081>083-272000-
SOUTHEAST LOWER MICHIGAN

CITY           SKY/WX    TMP DP  RH WIND       PRES   REMARKS
ADRIAN         SUNNY     68  32  26 W15G28    29.76F
ALMA           CLOUDY    61  47  59 W16G28    29.69S
ANN ARBOR      MOSUNNY   68  38  33 SW20G26   29.73F
BAD AXE        CLOUDY    61  46  57 SW10      29.69R
CARO           CLOUDY    62  46  55 SW10      29.68S
DETROIT CITY   MOSUNNY   69  37  30 SW15G29   29.73S
DETROIT        MOSUNNY   69  37  30 SW20G30   29.74F
FLINT          PTSUNNY   66  44  45 W12G23    29.70F
GROSSE ILE     SUNNY     70  36  28 W20       29.73F
HILLSDALE      SUNNY     66  30  26 SW12G26   29.75F
HOWELL         PTSUNNY   66  41  39 SW14G25   29.71F

CITY           SKY/WX    TMP DP  RH WIND       PRES   REMARKS
JACKSON        MOSUNNY   67  35  30 W16G31    29.73F
LAMBERTVILLE   SUNNY     70  34  26 SW14G24   29.76F
LANSING        PTSUNNY   64  38  38 W21       29.71S
LAPEER         CLOUDY    64  42  46 W12G18    29.71S
MASON          MOSUNNY   66  38  35 W14G25    29.71F
MONROE         SUNNY     71  37  28 W14G25    29.74F
MT. CLEMENS    MOSUNNY   68  42  39 W14       29.71S
PONTIAC        PTSUNNY   66  44  45 SW17G24   29.71F
PORT HURON     PTSUNNY   66  45  45 W5        29.71S
TRI CITIES     CLOUDY    62  46  55 SW12      29.68S HAZE
MIDLAND        CLOUDY    61  44  54 SW14G21   29.67R
TROY           PTSUNNY   69  37  30 SW8G18    29.74F
SAGINAW HB     CLOUDY    64  43  45 SW16G22   29.68R
$$
MIZ043>046-050>051-056>058-064>065-071>073-077>080-272000-
SOUTHWEST LOWER MICHIGAN

CITY           SKY/WX    TMP DP  RH WIND       PRES   REMARKS
BATTLE CREEK   SUNNY     67  39  35 W16G30    29.73F
BENTON HARBOR  SUNNY     70  35  27 W22       29.74F
BIG RAPIDS     CLOUDY    55  52  91 SW10      29.69R
COLDWATER      SUNNY     68  27  21 W15G26    29.75F
FREMONT        CLOUDY    55  47  72 W9        29.70S
HOLLAND        CLOUDY    62  45  53 W12G20    29.73F
GRAND RAPIDS   CLOUDY    60  44  55 W18G25    29.73S
IONIA          CLOUDY    60  43  52 W22G28    29.71R
KALAMAZOO      MOSUNNY   66  34  30 W18G31    29.74F
LUDINGTON      CLOUDY    56  48  74 W8G18     29.66S
MARSHALL       SUNNY     66  36  33 W20G26    29.73F
MOUNT PLEASANT DRIZZLE   57  47  69 W10       29.68R
MUSKEGON       LGT RAIN  58  46  64 W12G22    29.72R
SOUTH HAVEN    MOSUNNY   67  41  38 W17       29.73F
$$
MIZ016>042-272000-
NORTHERN LOWER MICHIGAN

CITY           SKY/WX    TMP DP  RH WIND       PRES   REMARKS
ALPENA         LGT RAIN  57  51  80 SW9       29.63S
BEAVER ISLAND  LGT RAIN  53  51  92 W13       29.57R
BELLAIRE       CLOUDY    56  52  86 CALM      29.61S
CADILLAC       CLOUDY    52  49  88 SW9       29.65R
CHARLEVOIX     RAIN      54  51  89 W16       29.62R
FRANKFORT      LGT RAIN  56  48  76 W9G23     29.62S
GAYLORD        CLOUDY    54  48  80 SW13      29.61R
GRAYLING       CLOUDY    55  48  76 SW9       29.64R
HARBOR SPRINGS DRIZZLE   54  53  95 SW13G21   29.58R
HOUGHTON LAKE  RAIN      53  49  86 SW10      29.66R FOG
MANISTEE       CLOUDY    57  47  69 SW12      29.64S
OSCODA         LGT RAIN  55  50  83 SW10      29.65R
PELLSTON       HVY RAIN  54  52  93 SW6       29.58R FOG
ROGERS CITY    LGT RAIN  57  49  75 SW8       29.61R
TRAVERSE CITY  CLOUDY    57  50  77 VRB6      29.60S
$$
MIZ007>008-015-272000-
EASTERN UPPER MICHIGAN

CITY           SKY/WX    TMP DP  RH WIND       PRES   REMARKS
KINROSS        LGT RAIN  54  51  90 W7        29.55R
MACKINAC ISLAN LGT RAIN  53  53 100 CALM      29.56R
NEWBERRY       LGT RAIN  52  51  97 SW10      29.55R
S. S. MARIE    LGT RAIN  56  52  86 W5        29.54R
MUNISING         N/A     54  51  90 VRB6      29.54R
$$
MIZ004>006-011>014-085-272000-
CENTRAL UPPER MICHIGAN

CITY           SKY/WX    TMP DP  RH WIND       PRES   REMARKS
MANISTIQUE     LGT RAIN  51  49  92 W6        29.57R
ESCANABA       LGT RAIN  52  49  89 W10       29.59S
MENOMINEE      LGT RAIN  52  49  89 VRB6      29.63R
SAWYER-GWINN   CLOUDY    50  48  93 W8        29.56R
$$
MIZ001>003-009>011-084-272000-
WESTERN UPPER MICHIGAN

CITY           SKY/WX    TMP DP  RH WIND       PRES   REMARKS
IRON MOUNTAIN  LGT RAIN  51  46  83 W8        29.58S
HOUGHTON       LGT RAIN  51  48  89 NW16      29.56R FOG
COPPER HARBOR    N/A     55  52  89 N16       29.51S
IRONWOOD       LGT RAIN  49  48  97 NW10      29.65R FOG
$$

ABBREVIATIONS USED IN REMARKS
   TC - TEMPERATURE IN CELSIUS
  WCI - WIND CHILL INDEX
   HX - HEAT INDEX
  VSB - VISIBILITY





USA.gov is the U.S. government's official web portal to all federal, state and local government web resources and services.